[[{"header":{"parameterUnit":"m.s-1","parameterCategory":1,"la1":30.2992,"la2":30.254,"lo1":-89.0895,"lo2":-89.0443,"dy":0.0025,"dx":0.0025,"nx":19,"ny":19,"refTime":"2026-05-02T09:00:00:Z","depth":0,"parameterNumber":2,"parameterNumberName":"U-component_of_WINDS"},"data":[0,0,0,-0.9845,-0.985,-1.0061,-1.0062,-1.0354,-1.0356,0,0,0,0,0,0,0,0,0,0,0,-0.9794,-0.9797,-0.9845,-0.985,-1.0061,-1.0062,-1.0353,-1.0356,0,0,0,0,0,0,0,0,0,0,0,-0.9793,-0.9796,-0.9799,-0.9851,-1.0061,-1.0062,-1.0353,-1.0186,0,0,0,0,0,0,0,0,0,0,-0.9978,-0.9941,-0.9795,-0.9799,-0.9853,-1.0061,-1.0062,-1.0178,-1.0197,-1.0267,0,-1.0331,0,-1.0348,-1.0377,-1.0378,0,0,0,-0.9843,-0.9926,-0.9972,-0.9799,-0.9855,-1.006,-0.9964,-1.0188,-1.0209,-1.0292,-1.0335,-1.0345,-1.0353,-1.0379,-1.0381,-1.0812,-1.0814,0,0,-0.9831,-0.9839,-0.9957,-0.9986,-0.9953,-0.9957,-0.997,-1.02,-1.0249,-1.0336,-1.0352,-1.0358,-1.0381,-1.0384,-1.0809,-1.0812,0,0,0,-0.9803,-0.9831,-0.9871,-0.9975,-1.0011,-0.9963,-0.9979,-1.0238,-1.0251,-1.0355,-1.0361,-1.0383,-1.0387,-1.0807,-1.081,-1.094,0,0,0,-0.9795,-0.9815,-0.9867,-0.9874,-1.0007,-1.0127,-1.0012,-1.0235,-1.026,-1.036,-1.0383,-1.039,-1.0804,-1.0809,-1.093,-1.1002,0,0,0,-0.9777,-0.9812,-0.9846,-0.9874,-0.9964,-1.0123,-1.0148,-1.024,-1.0265,-1.0379,-1.0391,-1.0802,-1.0808,-1.0922,-1.0988,-1.1122,0,0,0,-0.976,-0.9957,-0.9849,-1.0071,-0.9963,-1.0199,-1.0146,-1.0322,-1.0434,-1.0385,-1.0804,-1.081,-1.0919,-1.0979,-1.1113,-1.124,-1.1291,0,0,-1.0014,-0.9988,-1.0118,-1.0027,-1.0285,-1.0166,-1.0444,-1.0539,-1.0542,-1.0722,-1.0732,-1.0933,-1.0987,-1.112,-1.1568,-1.161,0,0,0,-1.0202,-1.0297,-1.0363,-1.0469,-1.0545,-1.0619,-1.0669,-1.0705,-1.0857,-1.0635,-1.1014,-1.1045,-1.1123,-1.1184,-1.1219,-1.1288,-1.0836,-1.0836,-1.0835,-1.0577,-1.057,-1.0787,-1.0805,-1.0909,-1.0959,-1.1045,-1.1102,-1.1063,-1.1152,-1.1209,-1.1482,-1.1553,-1.1579,-1.1651,-1.1269,-1.127,-1.127,-1.127,-1.0954,-1.109,-1.1032,-1.1223,-1.1215,-1.1376,-1.1432,-1.1399,-1.155,-1.1438,-1.1506,-1.1391,-1.1625,-1.1687,-1.128,-1.1278,-1.1277,-1.1276,-1.1275,-1.1205,-1.127,-1.1307,-1.1462,-1.1582,-1.1591,-1.174,-1.1724,-1.1712,-1.1778,-1.1839,-1.1837,-1.1839,-1.1807,-1.1808,-1.1809,-1.181,-1.181,-1.1811,-1.1454,-1.1492,-1.1618,-1.1715,-1.1782,-1.1869,-1.1921,-1.1988,-1.2058,-1.2037,-1.2037,-1.1994,-1.1645,-1.1563,-1.1826,-1.1823,-1.1821,-1.182,-1.1819,-1.1852,-1.1759,-1.1954,-1.2022,-1.2135,-1.2258,-1.2234,-1.2372,-1.2424,-1.2499,-1.2439,-1.2181,-1.2155,-1.2127,-1.206,-1.2435,-1.2435,-1.2435,-1.2435,-1.207,-1.2052,-1.225,-1.236,-1.2465,-1.2463,-1.2688,-1.2729,-1.2758,-1.2791,-1.2732,-1.2638,-1.2609,-1.2601,-1.2562,-1.2499,-1.2979,-1.2979,-1.298,-1.2317,-1.2309,-1.2503,-1.2528,-1.2615,-1.2692,-1.2904,-1.3034,-1.3046,-1.3001,-1.2818,-1.2795,-1.2642,-1.2591,-1.255,-1.2491,-1.2374,0,0]},{"header":{"parameterUnit":"m.s-1","parameterCategory":1,"la1":30.2992,"la2":30.254,"lo1":-89.0895,"lo2":-89.0443,"dy":0.0025,"dx":0.0025,"nx":19,"ny":19,"refTime":"2026-05-02T09:00:00:Z","depth":0,"parameterNumber":3,"parameterNumberName":"V-component_of_WINDS"},"data":[0,0,0,-4.9027,-4.9033,-4.9306,-4.9307,-4.967,-4.9674,0,0,0,0,0,0,0,0,0,0,0,-4.8956,-4.8959,-4.9027,-4.9034,-4.9306,-4.9307,-4.967,-4.9674,0,0,0,0,0,0,0,0,0,0,0,-4.8955,-4.8958,-4.8962,-4.9035,-4.9306,-4.9307,-4.9669,-4.9458,0,0,0,0,0,0,0,0,0,0,-4.919,-4.9135,-4.8957,-4.8962,-4.9036,-4.9306,-4.9307,-4.9447,-4.9471,-4.9553,0,-4.963,0,-4.9658,-4.9699,-4.9701,0,0,0,-4.9026,-4.9115,-4.918,-4.8962,-4.9039,-4.9305,-4.9181,-4.946,-4.9487,-4.9585,-4.9635,-4.9648,-4.9664,-4.9702,-4.9704,-5.0207,-5.0209,0,0,-4.9011,-4.901,-4.9162,-4.9198,-4.9158,-4.9172,-4.919,-4.9476,-4.9531,-4.9637,-4.9657,-4.967,-4.9704,-4.9707,-5.0204,-5.0207,0,0,0,-4.8973,-4.9,-4.9057,-4.9183,-4.9231,-4.9181,-4.92,-4.9518,-4.9537,-4.966,-4.9674,-4.9706,-4.9711,-5.0201,-5.0205,-5.034,0,0,0,-4.8963,-4.8978,-4.9051,-4.9054,-4.9226,-4.9379,-4.9236,-4.9517,-4.9549,-4.9672,-4.9706,-4.9715,-5.0198,-5.0203,-5.033,-5.0404,0,0,0,-4.8935,-4.8974,-4.9017,-4.9053,-4.917,-4.9374,-4.9409,-4.9524,-4.9559,-4.9701,-4.9716,-5.0196,-5.0202,-5.0321,-5.039,-5.0538,0,0,0,-4.8904,-4.9132,-4.9019,-4.9279,-4.9168,-4.9455,-4.9407,-4.962,-4.9758,-4.9708,-5.0199,-5.0205,-5.0318,-5.038,-5.0528,-5.0664,-5.072,0,0,-4.9192,-4.9167,-4.932,-4.9227,-4.9534,-4.9413,-4.974,-4.9866,-4.9879,-5.0096,-5.0109,-5.0333,-5.0389,-5.0536,-5.1031,-5.1076,0,0,0,-4.9411,-4.9521,-4.9602,-4.9734,-4.9837,-4.9931,-5.0007,-5.0054,-5.0238,-4.9991,-5.0426,-5.0459,-5.0545,-5.061,-5.0648,-5.0723,-5.0234,-5.0234,-5.0233,-4.9818,-4.9823,-5.0077,-5.0116,-5.0244,-5.032,-5.0425,-5.0501,-5.0467,-5.057,-5.0636,-5.0936,-5.1012,-5.104,-5.1118,-5.0706,-5.0706,-5.0707,-5.0707,-5.0241,-5.0399,-5.035,-5.0579,-5.0583,-5.0775,-5.0856,-5.0827,-5.1006,-5.0887,-5.0963,-5.0835,-5.1089,-5.1158,-5.0717,-5.0716,-5.0714,-5.0713,-5.0713,-5.0511,-5.0587,-5.064,-5.0832,-5.0978,-5.1008,-5.1182,-5.1179,-5.1176,-5.1252,-5.1321,-5.1319,-5.1318,-5.1285,-5.1286,-5.1287,-5.1288,-5.1288,-5.1289,-5.077,-5.0826,-5.0974,-5.1102,-5.1186,-5.1296,-5.1374,-5.1457,-5.1547,-5.1531,-5.1531,-5.1489,-5.1112,-5.1019,-5.1305,-5.1302,-5.13,-5.1299,-5.1298,-5.1202,-5.1103,-5.1333,-5.1417,-5.1567,-5.1713,-5.1705,-5.1874,-5.1941,-5.2027,-5.1968,-5.1689,-5.1664,-5.1634,-5.1557,-5.1965,-5.1965,-5.1965,-5.1965,-5.1431,-5.1417,-5.1651,-5.1786,-5.1918,-5.1935,-5.2193,-5.2256,-5.2305,-5.2347,-5.2286,-5.2183,-5.2152,-5.2145,-5.2103,-5.2031,-5.2552,-5.2552,-5.2553,-5.1697,-5.1696,-5.1918,-5.1965,-5.2081,-5.2181,-5.2424,-5.2581,-5.2616,-5.2577,-5.238,-5.2355,-5.2188,-5.2133,-5.2092,-5.2028,-5.1896,0,0]}]]